Regional Weather Roundup
Issued by NWS Wakefield, VA

Home | Current Version | Previous Version | Text Only | Print | Product List | Glossary On
Versions: 1 2 3 4 5 6 7 8 9 10 11 12 13 14 15 16 17 18 19 20 21 22 23 24 25 26 27 28 29 30 31 32 33 34 35 36 37 38 39 40 41 42 43 44 45 46 47 48 49 50
000
ASUS41 KAKQ 251616
RWRAKQ

REGIONAL WEATHER ROUNDUP
NATIONAL WEATHER SERVICE WAKEFIELD VA
1200 PM EDT THU MAY 25 2017

Note: "fair" indicates few or no clouds below 12,000 feet with no
significant weather and/or obstructions to visibility. * = Denotes
station may not report precipitation (e.g., rain,snow,etc.),
thunder or fog.

VAZ042-051-052>054-056-251700-
NORTHERN VIRGINIA

CITY           SKY/WX    TMP DP  RH WIND       PRES   REMARKS
WASH NATIONAL  CLOUDY    67  62  84 SW12      29.52R
DULLES         CLOUDY    63  57  81 W6        29.52S
FORT BELVOIR   PTSUNNY   67  60  77 W6        29.51S
QUANTICO       PTSUNNY   68  62  81 S8        29.53S
FREDERICKSBRG* CLOUDY    67  62  82 SW8       29.52S
STAFFORD*      CLOUDY    65  62  88 SW5       29.56S
WARRENTON      CLOUDY    68  57  67 SW5       29.52F
CULPEPER*      PTSUNNY   69  61  74 SW7       29.53S
MANASSAS*      CLOUDY    67  59  75 VRB5      29.52F
LEESBURG*      CLOUDY    64  63  94 CALM      29.53S
WINCHESTER     CLOUDY    61  54  77 CALM      29.53R
FRONT ROYAL*   CLOUDY    63  59  88 CALM      29.52S
LURAY*         CLOUDY    64  59  82 S7        29.53S
$$

VAZ048-049-060>072-079>083-251700-
CENTRAL AND SOUTH CENTRAL VIRGINIA

CITY           SKY/WX    TMP DP  RH WIND       PRES   REMARKS
RICHMOND       PTSUNNY   74  61  63 S17       29.53S
CHESTERFIELD*  NOT AVBL
PETERSBURG*    PTSUNNY   72  59  63 CALM      29.54F
HANOVER        MOSUNNY   72  58  61 S10       29.53S
TAPPAHANNOCK*  MOSUNNY   74  60  61 SE7       29.53S
QUINTON*       PTSUNNY   72  61  69 SW5       29.53S
CHARLOTTSVILLE MOSUNNY   69  61  75 SE7       29.51S
GORDONSVILLE*  CLOUDY    66  60  82 S7        29.52S
ORANGE*        CLOUDY    64  59  82 CALM      29.52S
LOUISA*        CLOUDY    70  63  78 CALM      29.52S
BUMPASS*       CLOUDY    66  62  85 SW5       29.53S
FARMVILLE*     PTSUNNY   70  57  65 SW6       29.51F
CREWE*         FAIR      70  58  65 SW5       29.53S
FORT PICKETT*  CLOUDY    71  58  62 SW9G20    29.54S
CHASE CITY*    PTSUNNY   69  60  71 SW5       29.54S
CLARKSVILLE*   PTSUNNY   72  59  64 SW16G23   29.53F
SOUTH HILL*    CLOUDY    71  64  76 S13G18    29.60F
LAWRENCEVILLE* PTSUNNY   71  61  69 SW14      29.55F
EMPORIA*       MOSUNNY   72  61  68 S12G18    29.56F
$$

VAZ088>098-251700-
SOUTHEAST VIRGINIA

CITY           SKY/WX    TMP DP  RH WIND       PRES   REMARKS
NORFOLK        MOSUNNY   74  60  61 W12       29.53F
VIRGINIA BEACH PTSUNNY   76  61  59 W12       29.52F
NORFOLK NAVAL  PTSUNNY   73  60  63 W10       29.55F
WEST POINT*    PTSUNNY   73  61  65 SW10G18   29.55S
SALUDA*        FAIR      75  63  66 SW8       29.53S
NEWPORT NEWS   SUNNY     75  61  61 SW14      29.54F
LANGLEY AFB    MOSUNNY   73  62  68 W12       29.53F
FORT EUSTIS    MOSUNNY   76  62  60 SW12      29.51F
WILLIAMSBURG*  SUNNY     75  64  69 W9        29.55F
HR EXEC AP*    PTSUNNY   72  61  68 W3        29.53S
FRANKLIN*      PTSUNNY   74  62  66 SW8       29.54F
US460-WAKEFLD  MOSUNNY   74  62  66 S9        29.53F
$$

VAZ020-022-025-037-045-251700-
WEST CENTRAL AND SOUTHWEST VIRGINIA

CITY           SKY/WX    TMP DP  RH WIND       PRES   REMARKS
STAUNTON*      PTSUNNY   65  57  76 SW7       29.53F
WAYNESBORO*    CLOUDY    63  58  84 SW8G16    29.52S
HOT SPRINGS VA CLOUDY    43  39  87 W9        29.58S
LYNCHBURG      PTSUNNY   67  55  65 VRB7      29.54S
DANVILLE       CLOUDY    67  61  81 NW6       29.55S
SOUTH BOSTON*  FAIR      71  59  64 SW8       29.53F
MARTINSVILLE   SUNNY     66  56  68 S3        29.58F
ROANOKE        MOSUNNY   67  52  58 SW9       29.55F
BLACKSBURG     CLOUDY    62  50  63 W7        29.60S HAZE
DUBLIN*        PTSUNNY   63  46  52 W16G22    29.59S
MARION*        CLOUDY    60  51  72 W15G23    29.64S
HILLSVILLE*    MOSUNNY   59  42  53 W13G24    29.59S
RICHLANDS*     RAIN      51  21  31 SW8G20    29.63R
WISE*            N/A     52  52 100 SW12G22   29.63S
ABINGDON*      DRIZZLE   55  53  90 W10G18    29.65R
$$

MDZ021>025-VAZ099-100-251700-
SOUTHERN MARYLAND AND THE DELMARVA PENINSULA

CITY           SKY/WX    TMP DP  RH WIND       PRES   REMARKS
PATUXENT RIVER PTSUNNY   72  66  81 W10       29.51R
BAY BRIDGE APT CLOUDY    72  64  78 SW13      29.50R
LEONARDTOWN    MOSUNNY   70  61  73 SW9       29.54S
DOVER          PTSUNNY   75  75 100 S17       29.48S
GEORGETOWN     MOSUNNY   78  66  66 SW20      29.52R
EASTON         MOSUNNY   73  64  73 W13G22    29.54R
CAMBRIDGE      SUNNY     73  63  68 S9G24     29.51R
SALISBURY      MOSUNNY   77  68  73 SW13      29.52S
OCEAN CITY     PTSUNNY   71  66  84 S12       29.54R
WALLOPS ISLAND CLOUDY    71  68  90 S14       29.54R
ACCOMACK*      CLOUDY    76  60  57 SW13G18   29.53F
$$

NCZ012>017-030>032-251700-
NORTH CENTRAL AND EASTERN NORTH CAROLINA

CITY           SKY/WX    TMP DP  RH WIND       PRES   REMARKS
ROANOKE RAPIDS FAIR      73  61  64 SW17      29.56F
RALEIGH        MOSUNNY   73  58  59 SW16      29.57F
ELIZABETH CITY MOSUNNY   78  68  71 S20G30    29.55F
AHOSKIE*         N/A     74  65  73 CALM      29.56S
EDENTON*       CLOUDY    77  67  70 W10       29.57S
CURRITUCK*     PTSUNNY   78  66  67 S10G17    29.55F
KILL DEVIL HLS MOSUNNY   78  64  60 SW6G22    29.57S
MANTEO         MOSUNNY   78  64  60 SW21G28   29.58S
CAPE HATTERAS  NOT AVBL
TARBORO*       NOT AVBL
GOLDSBORO      PTSUNNY   76  58  55 SW23      29.57F
WASHINGTON     PTSUNNY   73  62  69 SW12G17   29.59R
GREENVILLE     PTSUNNY   75  59  57 SW17G24   29.62S
NEW BERN       MOSUNNY   77  61  57 SW16      29.61F
WILMINGTON     MOSUNNY   77  57  50 SW18G28   29.62F
$$

VAZ048-251700-
ELSEWHERE

CITY           SKY/WX    TMP DP  RH WIND       PRES   REMARKS
HARRISBURG PA  LGT RAIN  59  58  96 E3        29.52S FOG
BALTIMORE      DRIZZLE   63  63 100 CALM      29.51R FOG
ANNAPOLIS      CLOUDY    70  65  84 VRB7      29.50R
ANDREWS AFB    CLOUDY    64  64 100 SW10      29.51S
PHILADELPHIA   DRIZZLE   60  57  89 E12       29.55S FOG
GREENSBORO     PTSUNNY   62  57  83 W7        29.57S
ROCKY MOUNT    CLOUDY    73  61  65 SW12G25   29.57F
$$

VAZ100-251700-
MARINE

STATION/POSITION TIME  TEMP    WIND        PRES    WAVE   SWELL
                       AIR SEA DIR/SP/G            HT/PER HT/PER
                 (UTC) (F)     (DEG/KT/KT) (MB)    (FT/S) (FT/S)
CAPE MAY NJ      1548   64 60  160/  9/ 12  999.2S
LEWES DE         1548   74 61  230/  8/ 12  999.2R
15NM E FENWICK I 1550   61 56  180/ 16/ 17 1000.5R   4/ 7   2/14
WACHAPREAGUE VA  1548   72 67  180/  9/ 12  999.8S
THOMAS POINT MD  1600   66 64  240/ 11/ 12   N/A
GOOSES REEF MD   1600   67 62  280/ 10/ 12 1000.0    2/ 3
COVE POINT MD    1548   70     270/ 10/ 13  999.9R
SOLOMONS ISLAND  1548   71 66  240/ 10/ 13   N/A
BISHOPS HEAD MD  1548   70 67  190/ 14/ 16  999.9R
PINEY POINT MD   1542          250/  5/  6   N/A
POTOMAC MD       1600   70 67  230/  8/ 10  998.5    1/ 2
CAMBRIDGE MD     1542   74 67                N/A
LEWISETTA VA     1548   72 67  230/ 11/ 14  999.4R
RAPPAHANNOCK LGT 1542          210/ 11/ 12 1000.8R
STINGRAY PT      1600   71 68  250/ 14/ 16  999.8    1/ 2
YORK RVR RNG VA  1548   72     260/ 12/ 15  999.5F
YORKTOWN VA      1548   73 69  240/  9/ 14  999.8F
JAMESTOWN VA     1600   71 72  230/  8/ 12   N/A
DOMINION TERM VA 1548   72     290/ 11/ 13 1000.2F
KIPTOPEKE VA     1548      64  320/  5/  6   N/A
CHES BAY BRIDGE  1548   69 63  310/ 10/ 13  999.9F
CAPE HENRY VA    1548   68     300/  6/ 10   N/A
WILLOUBY STN VA  1548   70     250/  8/  9 1000.0F
S CRANEY ISL VA  1548   73     280/  8/ 15 1000.1F
CAPE HENRY BUOY  1542      62                N/A     4/ 7
1ST LANDING BUOY 1600   70 66              1000.2    1/ 3
CAPE CHARLES BUO 1551      62                N/A     3/ 7
64NM E OF VA BCH 1550   67 65  190/ 12/ 14 1002.0F   6/ 7   5/ 7
DUCK PIER NC     1548   76 63  220/ 21/ 28 1000.7S
44100 DUCK FRF   1535      64                N/A     5/ 7
44056 DUCK FRF   1530      64                N/A     4/ 7
OREGON INLET NC  1542   75 70  200/ 25/ 31 1001.8F
HATTERAS NC      1548   77 73  220/ 16/ 23 1002.7F
DIAMOND SHLS NC  1550   78 77  230/ 27/ 33 1002.8F   9/ 7   5/15
CAPE LOOKOUT NC  1600   76     240/ 16/ 21 1002.8F
$$



USA.gov is the U.S. government's official web portal to all federal, state and local government web resources and services.